Location: Ravensburg
(48.5621°N, 13.4088°E)
Time: 05:29:13
(UTC+01:00)

Tiangong 1 - Visible Passes

Search period start: 21 November 2017 00:00
Search period end: 01 December 2017 00:00
Orbit: 285 x 308 km, 42.8° (Epoch: 20 November)

Date Brightness Start Highest point End Pass type
(mag) Time Alt. Az. Time Alt. Az. Time Alt. Az.
27 Nov 3.0 18:01:19 10° SSW 18:02:42 14° SSE 18:02:42 14° SSE visible
28 Nov 2.8 18:06:57 10° SW 18:08:37 18° S 18:08:37 18° S visible
29 Nov 2.7 18:12:44 10° SW 18:14:26 21° S 18:14:26 21° S visible
30 Nov 3.1 16:44:45 10° SSW 16:46:25 15° SSE 16:48:05 10° SE visible
30 Nov 2.8 18:18:32 10° WSW 18:20:08 21° SSW 18:20:08 21° SSW visible
